星链-5508 (STARLINK-5508 )

导读 | 豆包AI

STARLINK-5508是美国SpaceX公司星链(Starlink)项目的卫星,于2023年2月17日发射升空,属于星链第二代低轨卫星星座部署批次。作为星链全球卫星互联网组网的组成部分,它运行在近地轨道,为全球偏远地区、海事、航空等场景提供低延迟高速宽带服务,支撑星链已覆盖超60国、500万用户的商用服务体系,助力全球互联网无缝连接。

基本信息
目录编号:
55639
目录名称:
STARLINK-5508
国际标识:
2023-021M
轨道中心:
EARTH
卫星名称:
星链-5508
卫星全名:
星链-5508 (STARLINK-5508 )
卫星状态:
在轨 (已飞行1122 天)
发射日期:
2023-02-17 UTC
国别 :
美国 (US)
星等 :
--
轨道信息
数据来源 国际轨道数据
星历时间: 2026-03-15T07:26:05+0800
18小时前
查看轨道信息
半长轴: 6950.131km
偏心率: 0.0003177
轨道倾角: 70.001°
近地点辐角 270.622°
升交点赤经 171.112°
平近点角 89.457°
近地点: 569.785km
远地点: 574.203km
周期: 96.106分钟
每日圈数: 14.983502
详细信息
固有亮度:
5
最大亮度:
2.5
卫星平台:
Starlink v1.5
覆盖范围:
全球
运营商:
太空探索技术公司
运营商所在国:
美国
制造商(研发单位):
太空探索技术公司
制造商所在国:
美国
使用方式:
暂无
卫星简介
星链(Starlink)计划是由太空探索技术公司(SpaceX)提出的一个巨型低轨卫星互联网星座项目,计划在2019年至2024年间在太空搭建由约1.2万颗卫星组成的“星链”网络,其中1584颗将部署在地球上空550千米处的近地轨道,并从2020年开始工作。该卫星仍在工作。
2D轨道图
3D轨道图
轨道高度分析图
轨道倾角分析图
轨道综合分析图
查看轨道综合分析图